Regional Weather Roundup
Issued by NWS Kansas City/Pleasant Hill, MO

Home | Current Version | Previous Version | Graphics & Text | Print | Product List | Glossary Off
Versions: 1 2 3 4 5 6 7 8 9 10 11 12 13 14 15 16 17 18 19 20 21 22 23 24 25 26 27 28 29 30 31 32 33 34 35 36 37 38 39 40 41 42 43 44 45 46 47 48 49 50

000
ASUS43 KEAX 220704
RWREAX

WEATHER ROUNDUP FOR EASTERN KANSAS AND NORTHWEST MISSOURI
NATIONAL WEATHER SERVICE KANSAS CITY/PLEASANT HILL MO
200 AM CDT TUE JUL 22 2014

KSZ040-057-103>105-MOZ028-029-037-043-220800-
...KANSAS CITY METROPOLITAN AREA...

CITY           SKY/WX    TMP DP  RH WIND       PRES   REMARKS
K.C. INTL      CLEAR     80  74  81 SW14      29.98F
K.C. DOWNTOWN  PTCLDY    82  74  76 S8        29.97F
LEES SUMMIT    PTCLDY    79  73  82 S9        30.01S
OLATHE - IXD   PTCLDY    78  73  84 S10       30.00F
OLATHE - OJC   PTCLDY    77  73  87 S8        29.99F
LAWRENCE       PTCLDY    80  74  81 S9        29.98S

$$

MOZ001>008-011>017-020>025-030>033-038>040-044>046-053-054-220800-
...NORTHERN AND CENTRAL MISSOURI...

CITY           SKY/WX    TMP DP  RH WIND       PRES   REMARKS
ST. JOSEPH     PTCLDY    80  74  81 S8        29.95S
MOSBY          SUNNY     77  73  88 SE6       29.98F
WHITEMAN AFB   CLEAR     74  62  66 S8        30.03S
CLINTON        CLEAR     75  70  83 S8        30.04S
SEDALIA        CLEAR     75  67  76 S8        30.05R
WARSAW         NOT AVBL
MARSHALL       CLEAR     77  72  83 S7        30.03F
CHILLICOTHE      N/A     79  73  82 S5        30.00S
KIRKSVILLE     CLEAR     71  68  90 S7        30.03S

$$

MOZ041-047>049-056>058-063>065-088>090-097-220800-
...EASTERN AND SOUTHERN MISSOURI...

CITY           SKY/WX    TMP DP  RH WIND       PRES   REMARKS
ST. LOUIS INTL CLEAR     76  66  71 S5        30.07S
SPIRIT OF STL  CLEAR     70  66  87 CALM      30.07R
COLUMBIA       CLEAR     72  67  84 S8        30.06S
JEFFERSON CITY CLEAR     74  67  78 E5        30.04S
HANNIBAL       CLEAR     73  64  73 S7        30.05S
ROLLA          CLEAR     69  64  84 S8        30.08R
LEBANON        CLEAR     70  66  88 S5        30.09S
OSAGE BEACH    CLEAR     72  64  78 S5        30.06F
SPRINGFIELD    CLEAR     73  66  78 S9        30.08S
BRANSON        CLEAR     70  68  94 CALM      30.10F
NEVADA         PTCLDY    70  70 100 S5        30.05S FOG
JOPLIN         PTCLDY    74  71  91 S7        30.06S
WEST PLAINS    CLEAR     69  63  81 S3        30.11S

$$

IAZ060-094-KSZ022-034>040-054-083-096-NEZ052-066-093-220800-
...KANSAS...SOUTHEAST NEBRASKA AND IOWA...

CITY           SKY/WX    TMP DP  RH WIND       PRES   REMARKS
TOPEKA         PTCLDY    81  75  82 S8        29.97S
MANHATTAN      MOCLDY    81  74  79 SW9       29.96S
EMPORIA        MOCLDY    76  74  93 S13       29.99F
CHANUTE        MOCLDY    75  72  90 S7        30.03S
WICHITA        CLOUDY    80  75  84 S13       30.00F
OMAHA          CLOUDY    87  72  60 S10       29.88S HX  93
LINCOLN        CLOUDY    85  70  60 SW6       29.93R
FALLS CITY     PTCLDY    81  73  76 SW13      29.92S
LAMONI         MOCLDY    78  74  87 S10       29.96F
DES MOINES     PTCLDY    82  74  76 S12       29.91F

$$




USA.gov is the U.S. government's official web portal to all federal, state and local government web resources and services.